METEOR 1-17 DEB, 57541

Orbit data source: Space-Track

METEOR 1-17 DEB, 57541 is space debris in LEO originally from a Commonwealth of Independent States-origin launch on Wed, 24 Apr 1974 UTC launched from the Plesetsk Missile And Space Complex (PKMTR). Debris objects in space refer to the collection of defunct objects orbiting the Earth. Examples of debris include non-operational satellites, rocket bodies, and fragments generated from explosions, collisions, or faulty payload assembly.

Loading next visibility...
Identifier
57541, 1974-025G
Orbit
LEO
Country
Flag of CISCIS
Related business
Manufacturer
VNIIEM
Mission
Spacecraft
Bus & Motor
Unknown
Mass
Unknown
Launch date (UTC)
1974-04-24 (52 years ago)
Launch vehicle
Unknown
Launch site
Plesetsk Missile And Space Complex (PKMTR)
Object type
Payload
Rocket body
Debris
Shape & HBR
Unknown shape, 0.1 m
Radar Cross Section
Small (<0.1 m²)

Expand to show TLE details & history
Last TLE update: 2 days ago

TLE from 2 days ago
0 METEOR 1-17 DEB
1 57541U 74025G   26171.27569922  .00004571  00000-0  19544-2 0  9991
2 57541  81.2056 279.5607 0011412 260.9664  99.0223 14.24800881154713
Epoch: 2026-06-20T06:37Z
TLE epoch observation values (Epoch: 2026-06-20T06:37:00.412Z)
Latitude
-0.00008°
Longitude
-88.18368°
Altitude
813.376 km
Speed
7.446 km/s
True Right ascension
18h 38m 14s
True Declination
0° 00' 00"
Sunlit
Object was in full shadow at epoch
Visualization orbit readout
Latitude
Unknown
Longitude
Unknown
Altitude
Unknown
Speed
Unknown
Apparent Right ascension
Unknown
Apparent Declination
Unknown
Sunlit
N/A
Visualization observer readout
Local Sidereal Time
21:37:39
Azimuth
Unknown
Elevation
Unknown
Doppler factor
Unknown
Orbital elements
Apogee altitude
814.517 km
Perigee altitude
798.12 km
Semi-major axis
7,184.455 km
Eccentricity
0.00114
Inclination
81.2056°
RAAN
279.5607°
Arg. of periapsis
260.9664°
True anomaly
99.15142°
Mean anomaly
99.0223°
Eccentric anomaly
99.08687°
Mean motion
3.56412 °/min
Orbital period
101.01 mins
BSTAR
0.0019544
Loading maneuver chart data...
Computing Atmospheric mass density...
Loading historical data...
Loading historical data...
Loading historical data...
Loading historical data...
Loading historical data...
Loading historical data...
Loading historical data...

Documentation

Showing up to 5 results
|